TimeEST,TemperatureF,Dew PointF,Humidity,Sea Level PressureIn,VisibilityMPH,Wind Direction,Wind SpeedMPH,Gust SpeedMPH,PrecipitationIn,Events,Conditions,WindDirDegrees,DateUTC
6:15 AM,78.8,77.0,94,29.95,6.2,East,4.6,-,N/A,,Mostly Cloudy,80,2012-12-27 11:15:00
7:00 AM,78,77,96,29.97,6,East,4.6,,,,Partly Cloudy,90,2012-12-27 12:00:00
7:00 AM,78.8,77.0,94,29.95,6.2,East,4.6,-,N/A,,Mostly Cloudy,90,2012-12-27 12:00:00
8:00 AM,78.8,77.0,94,29.98,6.2,East,6.9,-,N/A,,Mostly Cloudy,90,2012-12-27 13:00:00
9:00 AM,80.6,78.8,94,29.98,6.2,ESE,4.6,-,N/A,,Mostly Cloudy,110,2012-12-27 14:00:00
10:00 AM,82.4,77.0,84,30.01,6.2,ESE,8.1,-,N/A,,Mostly Cloudy,110,2012-12-27 15:00:00
11:00 AM,82.4,77.0,84,30.01,6.2,ESE,8.1,-,N/A,,Scattered Clouds,110,2012-12-27 16:00:00
12:00 PM,82.4,77.0,84,29.95,6.2,SE,8.1,-,N/A,,Mostly Cloudy,130,2012-12-27 17:00:00
1:00 PM,84,79,80,29.94,6,SE,6.9,,,,Scattered Clouds,140,2012-12-27 18:00:00
1:00 PM,84.2,78.8,84,29.92,6.2,SE,6.9,-,N/A,,Mostly Cloudy,140,2012-12-27 18:00:00
2:00 PM,84.2,78.8,84,29.92,6.2,SE,8.1,-,N/A,,Partly Cloudy,140,2012-12-27 19:00:00
3:00 PM,84.2,77.0,79,29.92,6.2,SE,8.1,-,N/A,,Mostly Cloudy,130,2012-12-27 20:00:00
4:00 PM,84.2,77.0,79,29.89,6.2,SE,5.8,-,N/A,,Partly Cloudy,130,2012-12-27 21:00:00
5:00 PM,82.4,77.0,84,29.92,6.2,ESE,5.8,-,N/A,,Partly Cloudy,120,2012-12-27 22:00:00
6:00 PM,80.6,77.0,89,29.92,6.2,ESE,3.5,-,N/A,,Partly Cloudy,120,2012-12-27 23:00:00
7:00 PM,80,77,89,29.95,6,East,3.5,,,,Scattered Clouds,90,2012-12-28 00:00:00
7:00 PM,80.6,77.0,89,29.95,6.2,East,3.5,-,N/A,,Partly Cloudy,90,2012-12-28 00:00:00
8:00 PM,78.8,77.0,94,29.95,6.2,East,4.6,-,N/A,,Partly Cloudy,100,2012-12-28 01:00:00
9:00 PM,78.8,77.0,94,29.98,6.2,East,8.1,-,N/A,,Partly Cloudy,90,2012-12-28 02:00:00
10:00 PM,78.8,77.0,94,29.98,6.2,East,6.9,-,N/A,,Partly Cloudy,90,2012-12-28 03:00:00